Retour au catalogue

STARLINK-6080

ActifCommunicationsVLEO
NORAD 56112·PAYLOAD·🇺🇸 United States

Lancé Mar 29, 2023 depuis Cape Canaveral Space Force Station

Loading…

Prochains Passages (prochaines 24 heures)

TLE

FraisSource: CelesTrak SupGP

Époque: Sep 14, 2026, 21:26 UTC

1 56112C 23046V   26257.89354167 -.00024077  00000+0 -87247-3 0  2574
2 56112  43.0026 173.4021 0001714 271.4495  81.7113 15.27575323    17

Suivez STARLINK-6080 en temps réel avec AllMySat

Download on the App Store